{"data":{"norad_id":58834,"intl_designator":"2024-017J","name":"STARLINK-31171","alt_names":[],"object_type":"PAYLOAD","status":"ACTIVE","operator":null,"country":"US","launch_date":"2024-01-24","launch_site_code":"AFWTR","launch_vehicle":null,"mission":null,"orbit_class":"UNKNOWN","rcs_meters":null,"size_class":null,"mass_kg":null,"dimensions":null,"purposes":["comms"],"wikipedia_slug":null,"has_3d_model":false,"image_url":null,"decayed_at":null,"tle_current":{"epoch":"2026-05-24T11:09:47.787552Z","epoch_age_seconds":131652,"freshness":"FRESH","line1":"1 58834U 24017J   26144.46513643 -.00000105  00000+0  85640-5 0  9995","line2":"2 58834  53.1589 188.7934 0001152  77.6439 282.4691 15.30194481131986","mean_motion":15.30194481,"eccentricity":0.0001152,"inclination_deg":53.1589,"raan_deg":188.7934,"arg_perigee_deg":77.6439,"mean_anomaly_deg":282.4691,"bstar":8.564e-6,"rev_number":13198,"period_min":94.105685119119,"perigee_km":474.44204015129,"apogee_km":476.0210562648,"semimajor_km":6853.368548208,"source":"CELESTRAK","updated_at":"2026-05-25T13:38:18.754240Z"}}}